"read_dt","SO2 (ppb)","flags","PMT voltage (V)","lamp voltage (V)","lamp intensity (Hz)","internal temp (C)","react chamber temp (C)","sample flow (l/min)","pres (mmHg)","SO2 bkg (ppb)","SO2 coefficient"
2014-03-25 00:00:00,5035E-2,5C000490,-0724,1262,7969,023.7,045.2,0.159,751.6,01.17,0.508
2014-03-25 00:01:00,5016E-2,5C000490,-0724,1262,7952,023.7,045.2,0.159,751.7,01.17,0.508
2014-03-25 00:02:00,5018E-2,5C000490,-0724,1264,7853,023.8,045.2,0.159,751.6,01.17,0.508
2014-03-25 00:03:00,5067E-2,5C000490,-0724,1265,7921,023.8,045.2,0.159,751.6,01.17,0.508
2014-03-25 00:04:00,5036E-2,5C000490,-0724,1265,7978,023.7,045.2,0.159,751.6,01.17,0.508
2014-03-25 00:05:00,5087E-2,5C000490,-0724,1266,8049,023.8,045.2,0.159,751.5,01.17,0.508
2014-03-25 00:06:00,5071E-2,5C000490,-0724,1265,7866,023.8,045.2,0.159,751.6,01.17,0.508
2014-03-25 00:07:00,5056E-2,5C000490,-0724,1263,7787,023.7,045.2,0.159,751.6,01.17,0.508
2014-03-25 00:08:00,5008E-2,5C000490,-0724,1263,7899,023.7,045.2,0.159,751.6,01.17,0.508
2014-03-25 00:09:00,5033E-2,5C000490,-0724,1263,7805,023.7,045.2,0.159,751.5,01.17,0.508
2014-03-25 00:10:00,5052E-2,5C000490,-0724,1264,7942,023.7,045.2,0.159,751.5,01.17,0.508
2014-03-25 00:11:00,5048E-2,5C000490,-0724,1266,7781,023.8,045.2,0.159,751.5,01.17,0.508
2014-03-25 00:12:00,4999E-2,5C000490,-0724,1267,7866,023.7,045.2,0.159,751.5,01.17,0.508
2014-03-25 00:13:00,4933E-2,5C000490,-0724,1269,7926,023.7,045.2,0.159,751.4,01.17,0.508
2014-03-25 00:14:00,4955E-2,5C000490,-0724,1271,7781,023.7,045.2,0.159,751.5,01.17,0.508
2014-03-25 00:15:00,4972E-2,5C000490,-0724,1272,7880,023.7,045.2,0.159,751.6,01.17,0.508
2014-03-25 00:16:00,4941E-2,5C000490,-0724,1273,7729,023.7,045.2,0.159,751.5,01.17,0.508
2014-03-25 00:17:00,5012E-2,5C000490,-0724,1275,7754,023.7,045.2,0.159,751.4,01.17,0.508
2014-03-25 00:18:00,5008E-2,5C000490,-0724,1278,7744,023.7,045.2,0.159,751.5,01.17,0.508
2014-03-25 00:19:00,5013E-2,5C000490,-0724,1279,7764,023.7,045.2,0.159,751.5,01.17,0.508
2014-03-25 00:20:00,4973E-2,5C000490,-0724,1282,7783,023.7,045.2,0.159,751.4,01.17,0.508
2014-03-25 00:21:00,4931E-2,5C000490,-0724,1283,7683,023.7,045.2,0.159,751.5,01.17,0.508
2014-03-25 00:22:00,4920E-2,5C000490,-0724,1283,7650,023.7,045.2,0.159,751.4,01.17,0.508
2014-03-25 00:23:00,4954E-2,5C000490,-0724,1284,7724,023.7,045.2,0.159,751.3,01.17,0.508
2014-03-25 00:24:00,4993E-2,5C000490,-0724,1284,7778,023.7,045.2,0.159,751.4,01.17,0.508
2014-03-25 00:25:00,4924E-2,5C000490,-0724,1287,7743,023.7,045.2,0.159,751.5,01.17,0.508
2014-03-25 00:26:00,5050E-2,5C000490,-0724,1290,7677,023.7,045.2,0.159,751.4,01.17,0.508
2014-03-25 00:27:00,4988E-2,5C000490,-0724,1291,7753,023.7,045.2,0.159,751.3,01.17,0.508
2014-03-25 00:28:00,5009E-2,5C000490,-0724,1291,7628,023.7,045.2,0.159,751.4,01.17,0.508
2014-03-25 00:29:00,4994E-2,5C000490,-0724,1292,7546,023.7,045.2,0.159,751.4,01.17,0.508
2014-03-25 00:30:00,4964E-2,5C000490,-0724,1292,7622,023.7,045.2,0.159,751.4,01.17,0.508
2014-03-25 00:31:00,4924E-2,5C000490,-0724,1294,7601,023.7,045.2,0.159,751.3,01.17,0.508
2014-03-25 00:32:00,4762E-2,5C000490,-0724,1297,7556,023.7,045.2,0.159,751.3,01.17,0.508
2014-03-25 00:33:00,4860E-2,5C000490,-0724,1298,7555,023.7,045.2,0.159,751.3,01.17,0.508
2014-03-25 00:34:00,4836E-2,5C000490,-0724,1300,7572,023.7,045.2,0.159,751.3,01.17,0.508
2014-03-25 00:35:00,4910E-2,5C000490,-0724,1302,7560,023.7,045.2,0.159,751.3,01.17,0.508
2014-03-25 00:36:00,4822E-2,5C000490,-0724,1302,7603,023.7,045.2,0.159,751.3,01.17,0.508
2014-03-25 00:37:00,4860E-2,5C000490,-0724,1303,7572,023.7,045.2,0.159,751.3,01.17,0.508
2014-03-25 00:38:00,4791E-2,5C000490,-0724,1305,7545,023.7,045.2,0.159,751.2,01.17,0.508
2014-03-25 00:39:00,4843E-2,5C000490,-0724,1306,7539,023.7,045.2,0.159,751.2,01.17,0.508
2014-03-25 00:40:00,4807E-2,5C000490,-0724,1307,7504,023.7,045.2,0.159,751.3,01.17,0.508
2014-03-25 00:41:00,4811E-2,5C000490,-0724,1307,7555,023.7,045.2,0.159,751.3,01.17,0.508
2014-03-25 00:42:00,4840E-2,5C000490,-0724,1308,7564,023.7,045.2,0.159,751.3,01.17,0.508
2014-03-25 00:43:00,4792E-2,5C000490,-0724,1309,7542,023.7,045.2,0.159,751.2,01.17,0.508
2014-03-25 00:44:00,4823E-2,5C000490,-0724,1310,7377,023.7,045.2,0.159,751.2,01.17,0.508
2014-03-25 00:45:00,4843E-2,5C000490,-0724,1311,7443,023.7,045.2,0.159,751.3,01.17,0.508
2014-03-25 00:46:00,4761E-2,5C000490,-0724,1313,7374,023.7,045.2,0.159,751.3,01.17,0.508
2014-03-25 00:47:00,4812E-2,5C000490,-0724,1314,7426,023.7,045.2,0.159,751.2,01.17,0.508
2014-03-25 00:48:00,4795E-2,5C000490,-0724,1315,7402,023.7,045.2,0.159,751.2,01.17,0.508
2014-03-25 00:49:00,4774E-2,5C000490,-0724,1317,7255,023.7,045.2,0.159,751.2,01.17,0.508
2014-03-25 00:50:00,4775E-2,5C000490,-0724,1319,7291,023.7,045.2,0.159,751.2,01.17,0.508
2014-03-25 00:51:00,4849E-2,5C000490,-0724,1319,7398,023.7,045.2,0.159,751.2,01.17,0.508
2014-03-25 00:52:00,4833E-2,5C000490,-0724,1320,7221,023.7,045.2,0.159,751.2,01.17,0.508
2014-03-25 00:53:00,4783E-2,5C000490,-0724,1320,7372,023.7,045.2,0.159,751.2,01.17,0.508
2014-03-25 00:54:00,4861E-2,5C000490,-0724,1321,7253,023.7,045.2,0.159,751.1,01.17,0.508
2014-03-25 00:55:00,4796E-2,5C000490,-0724,1321,7368,023.7,045.2,0.159,751.2,01.17,0.508
2014-03-25 00:56:00,4817E-2,5C000490,-0724,1322,7401,023.7,045.2,0.159,751.1,01.17,0.508
2014-03-25 00:57:00,4747E-2,5C000490,-0724,1324,7313,023.7,045.2,0.159,751.1,01.17,0.508
2014-03-25 00:58:00,4825E-2,5C000490,-0724,1322,7395,023.7,045.2,0.159,751.1,01.17,0.508
2014-03-25 00:59:00,4775E-2,5C000490,-0724,1323,7307,023.7,045.2,0.159,751.1,01.17,0.508
2014-03-25 01:00:00,4854E-2,5C000490,-0724,1324,7337,023.7,045.2,0.159,751.1,01.17,0.508
2014-03-25 01:01:00,4901E-2,5C000490,-0724,1324,7350,023.7,045.2,0.159,751.1,01.17,0.508
2014-03-25 01:02:00,4876E-2,5C000490,-0724,1325,7306,023.7,045.2,0.159,751.0,01.17,0.508
2014-03-25 01:03:00,4852E-2,5C000490,-0724,1326,7351,023.7,045.2,0.159,751.0,01.17,0.508
2014-03-25 01:04:00,4843E-2,5C000490,-0724,1327,7390,023.7,045.1,0.159,751.0,01.17,0.508
2014-03-25 01:05:00,4863E-2,5C000490,-0724,1329,7328,023.7,045.2,0.159,751.0,01.17,0.508
2014-03-25 01:06:00,4875E-2,5C000490,-0724,1330,7345,023.7,045.2,0.159,751.0,01.17,0.508
2014-03-25 01:07:00,4841E-2,5C000490,-0724,1333,6991,023.8,045.2,0.159,751.0,01.17,0.508
2014-03-25 01:08:00,4804E-2,5C000490,-0724,1332,7252,023.7,045.2,0.159,751.0,01.17,0.508
2014-03-25 01:09:00,4913E-2,5C000490,-0724,1332,7212,023.7,045.2,0.159,751.0,01.17,0.508
2014-03-25 01:10:00,4804E-2,5C000490,-0724,1334,7254,023.7,045.2,0.159,750.9,01.17,0.508
2014-03-25 01:11:00,4874E-2,5C000490,-0724,1336,7210,023.7,045.2,0.159,751.0,01.17,0.508
2014-03-25 01:12:00,4895E-2,5C000490,-0724,1337,7255,023.8,045.2,0.159,751.0,01.17,0.508
2014-03-25 01:13:00,4836E-2,5C000490,-0724,1336,7214,023.7,045.2,0.159,750.9,01.17,0.508
2014-03-25 01:14:00,4773E-2,5C000490,-0724,1338,7163,023.7,045.2,0.159,751.0,01.17,0.508
2014-03-25 01:15:00,4823E-2,5C000490,-0724,1341,7235,023.7,045.2,0.159,751.0,01.17,0.508
2014-03-25 01:16:00,4852E-2,5C000490,-0724,1340,7111,023.8,045.2,0.159,750.8,01.17,0.508
2014-03-25 01:17:00,4851E-2,5C000490,-0724,1342,7184,023.8,045.2,0.159,750.9,01.17,0.508
2014-03-25 01:18:00,4809E-2,5C000490,-0724,1341,7205,023.7,045.2,0.159,750.9,01.17,0.508
2014-03-25 01:19:00,4844E-2,5C000490,-0724,1341,7143,023.7,045.2,0.159,750.9,01.17,0.508
2014-03-25 01:20:00,4823E-2,5C000490,-0724,1341,7204,023.8,045.2,0.159,750.9,01.17,0.508
2014-03-25 01:21:00,4808E-2,5C000490,-0724,1341,7190,023.8,045.2,0.159,750.9,01.17,0.508
2014-03-25 01:22:00,4784E-2,5C000490,-0724,1342,7088,023.8,045.2,0.159,750.9,01.17,0.508
2014-03-25 01:23:00,4792E-2,5C000490,-0724,1343,7093,023.7,045.2,0.159,750.9,01.17,0.508
2014-03-25 01:24:00,4847E-2,5C000490,-0724,1343,7263,023.8,045.2,0.159,750.9,01.17,0.508
2014-03-25 01:25:00,4767E-2,5C000490,-0724,1343,7123,023.8,045.2,0.159,750.9,01.17,0.508
2014-03-25 01:26:00,4854E-2,5C000490,-0724,1345,6967,023.8,045.2,0.159,750.8,01.17,0.508
2014-03-25 01:27:00,4798E-2,5C000490,-0724,1347,7109,023.8,045.2,0.159,750.9,01.17,0.508
2014-03-25 01:28:00,4812E-2,5C000490,-0724,1348,7013,023.8,045.2,0.159,750.9,01.17,0.508
2014-03-25 01:29:00,4834E-2,5C000490,-0724,1349,7087,023.8,045.2,0.159,750.8,01.17,0.508
2014-03-25 01:30:00,4789E-2,5C000490,-0724,1350,7118,023.8,045.2,0.159,750.8,01.17,0.508
2014-03-25 01:31:00,4793E-2,5C000490,-0724,1351,7039,023.8,045.2,0.159,750.9,01.17,0.508
2014-03-25 01:32:00,4795E-2,5C000490,-0724,1352,7024,023.8,045.2,0.159,750.9,01.17,0.508
2014-03-25 01:33:00,4795E-2,5C000490,-0724,1354,7042,023.8,045.2,0.159,750.9,01.17,0.508
2014-03-25 01:34:00,4771E-2,5C000490,-0724,1354,6916,023.8,045.2,0.159,750.9,01.17,0.508
2014-03-25 01:35:00,4803E-2,5C000490,-0724,1351,6957,023.8,045.2,0.159,750.9,01.17,0.508
2014-03-25 01:36:00,5676E-2,5C000490,-0724,1366,6778,023.8,045.2,0.159,750.8,01.17,0.508
2014-03-25 01:37:00,5885E-2,5C000490,-0724,1370,6701,023.8,045.2,0.159,750.8,01.17,0.508
2014-03-25 01:38:00,5810E-2,5C000490,-0724,1372,6611,023.8,045.2,0.159,750.9,01.17,0.508
2014-03-25 01:39:00,5827E-2,5C000490,-0724,1373,6663,023.8,045.2,0.159,750.8,01.17,0.508
2014-03-25 01:40:00,5775E-2,5C000490,-0724,1373,6562,023.8,045.2,0.159,750.7,01.17,0.508
2014-03-25 01:41:00,5817E-2,5C000490,-0724,1373,6718,023.8,045.2,0.159,750.8,01.17,0.508
2014-03-25 01:42:00,5726E-2,5C000490,-0724,1373,6723,023.8,045.2,0.159,750.8,01.17,0.508
2014-03-25 01:43:00,5849E-2,5C000490,-0724,1373,6629,023.8,045.2,0.159,750.8,01.17,0.508
2014-03-25 01:44:00,5795E-2,5C000490,-0724,1373,6619,023.9,045.2,0.159,750.8,01.17,0.508
2014-03-25 01:45:00,5789E-2,5C000490,-0724,1373,6598,023.9,045.2,0.159,750.7,01.17,0.508
2014-03-25 01:46:00,5816E-2,5C000490,-0724,1374,6643,023.9,045.2,0.159,750.7,01.17,0.508
2014-03-25 01:47:00,5795E-2,5C000490,-0724,1374,6549,023.9,045.2,0.159,750.7,01.17,0.508
2014-03-25 01:48:00,5777E-2,5C000490,-0724,1374,6579,023.9,045.2,0.159,750.7,01.17,0.508
2014-03-25 01:49:00,5801E-2,5C000490,-0724,1374,6601,023.9,045.2,0.159,750.7,01.17,0.508
2014-03-25 01:50:00,5786E-2,5C000490,-0724,1374,6582,023.9,045.2,0.159,750.8,01.17,0.508
2014-03-25 01:51:00,5760E-2,5C000490,-0724,1374,6514,023.9,045.2,0.159,750.7,01.17,0.508
2014-03-25 01:52:00,5753E-2,5C000490,-0724,1374,6528,024.0,045.2,0.159,750.7,01.17,0.508
2014-03-25 01:53:00,5794E-2,5C000490,-0724,1375,6442,024.0,045.2,0.159,750.7,01.17,0.508
2014-03-25 01:54:00,5758E-2,5C000490,-0724,1375,6445,024.0,045.2,0.159,750.7,01.17,0.508
2014-03-25 01:55:00,5890E-2,5C000490,-0724,1375,6437,024.0,045.2,0.159,750.7,01.17,0.508
2014-03-25 01:56:00,5788E-2,5C000490,-0724,1375,6433,024.0,045.2,0.159,750.7,01.17,0.508
2014-03-25 01:57:00,5799E-2,5C000490,-0724,1375,6378,024.0,045.2,0.158,750.7,01.17,0.508
2014-03-25 01:58:00,5842E-2,5C000490,-0724,1375,6391,024.0,045.2,0.158,750.6,01.17,0.508
2014-03-25 01:59:00,5766E-2,5C000490,-0724,1375,6445,024.0,045.2,0.158,750.6,01.17,0.508
2014-03-25 02:00:00,5766E-2,5C000490,-0724,1375,6434,024.0,045.2,0.158,750.7,01.17,0.508
2014-03-25 02:01:00,5831E-2,5C000490,-0724,1375,6401,024.1,045.2,0.158,750.7,01.17,0.508
2014-03-25 02:02:00,5816E-2,5C000490,-0724,1375,6394,024.1,045.2,0.158,750.7,01.17,0.508
2014-03-25 02:03:00,5782E-2,5C000490,-0724,1375,6341,024.1,045.2,0.158,750.6,01.17,0.508
2014-03-25 02:04:00,5857E-2,5C000490,-0724,1375,6292,024.1,045.2,0.158,750.6,01.17,0.508
2014-03-25 02:05:00,5767E-2,5C000490,-0724,1375,6318,024.1,045.2,0.158,750.6,01.17,0.508
2014-03-25 02:06:00,5802E-2,5C000490,-0724,1375,6375,024.1,045.2,0.158,750.6,01.17,0.508
2014-03-25 02:07:00,5812E-2,5C000490,-0724,1375,6363,024.2,045.2,0.158,750.6,01.17,0.508
2014-03-25 02:08:00,5796E-2,5C000490,-0724,1375,6362,024.1,045.2,0.158,750.6,01.17,0.508
2014-03-25 02:09:00,5868E-2,5C000490,-0724,1375,6376,024.2,045.2,0.158,750.5,01.17,0.508
2014-03-25 02:10:00,5863E-2,5C000490,-0724,1375,6196,024.2,045.2,0.158,750.5,01.17,0.508
2014-03-25 02:11:00,5802E-2,5C000490,-0724,1375,6247,024.2,045.2,0.158,750.6,01.17,0.508
2014-03-25 02:12:00,5838E-2,5C000490,-0724,1375,6291,024.2,045.2,0.158,750.6,01.17,0.508
2014-03-25 02:13:00,5814E-2,5C000490,-0724,1375,6352,024.2,045.2,0.158,750.6,01.17,0.508
2014-03-25 02:14:00,5903E-2,5C000490,-0724,1375,6301,024.2,045.2,0.158,750.5,01.17,0.508
2014-03-25 02:15:00,5820E-2,5C000490,-0724,1375,6260,024.2,045.2,0.158,750.6,01.17,0.508
2014-03-25 02:16:00,5844E-2,5C000490,-0724,1375,6200,024.2,045.2,0.158,750.5,01.17,0.508
2014-03-25 02:17:00,5813E-2,5C000490,-0724,1375,6198,024.2,045.2,0.158,750.5,01.17,0.508
2014-03-25 02:18:00,5804E-2,5C000490,-0724,1375,6199,024.3,045.2,0.158,750.5,01.17,0.508
2014-03-25 02:19:00,5811E-2,5C000490,-0724,1375,6142,024.3,045.2,0.158,750.5,01.17,0.508
2014-03-25 02:20:00,5770E-2,5C000490,-0724,1375,6157,024.3,045.2,0.146,750.4,01.17,0.508
2014-03-25 02:21:00,5811E-2,5C000490,-0724,1375,6256,024.3,045.2,0.163,750.5,01.17,0.508
2014-03-25 02:22:00,5832E-2,5C000490,-0724,1375,6169,024.3,045.2,0.115,750.5,01.17,0.508
2014-03-25 02:23:00,5756E-2,5C000490,-0724,1375,6206,024.3,045.2,0.000,750.4,01.17,0.508
2014-03-25 02:24:00,5844E-2,5C000490,-0724,1375,6232,024.3,045.2,0.000,750.4,01.17,0.508
2014-03-25 02:25:00,5869E-2,5C000490,-0724,1375,6268,024.3,045.2,0.000,750.4,01.17,0.508
2014-03-25 02:26:00,5793E-2,5C000490,-0724,1375,6199,024.3,045.2,0.000,750.4,01.17,0.508
2014-03-25 02:27:00,5842E-2,5C000490,-0724,1375,6159,024.3,045.2,0.000,750.4,01.17,0.508
2014-03-25 02:28:00,5823E-2,5C000490,-0724,1375,6269,024.3,045.2,0.000,750.5,01.17,0.508
2014-03-25 02:29:00,5893E-2,5C000490,-0724,1375,6180,024.3,045.2,0.000,750.4,01.17,0.508
2014-03-25 02:30:00,5848E-2,5C000490,-0724,1375,6154,024.4,045.2,0.000,750.4,01.17,0.508
2014-03-25 02:31:00,5797E-2,5C000490,-0724,1375,6197,024.3,045.2,0.000,750.5,01.17,0.508
2014-03-25 02:32:00,5815E-2,5C000490,-0724,1375,6186,024.4,045.2,0.000,750.5,01.17,0.508
2014-03-25 02:33:00,5805E-2,5C000490,-0724,1375,6040,024.4,045.2,0.000,750.4,01.17,0.508
2014-03-25 02:34:00,5793E-2,5C000490,-0724,1375,6159,024.4,045.2,0.000,750.4,01.17,0.508
2014-03-25 02:35:00,5845E-2,5C000490,-0724,1375,6124,024.4,045.2,0.000,750.4,01.17,0.508
2014-03-25 02:36:00,5800E-2,5C000490,-0724,1375,6140,024.4,045.2,0.000,750.4,01.17,0.508
2014-03-25 02:37:00,5870E-2,5C000490,-0724,1375,6073,024.4,045.2,0.000,750.4,01.17,0.508
2014-03-25 02:38:00,5820E-2,5C000490,-0724,1375,6001,024.4,045.2,0.000,750.4,01.17,0.508
2014-03-25 02:39:00,5760E-2,5C000490,-0724,1375,5977,024.4,045.2,0.000,750.4,01.17,0.508
2014-03-25 02:40:00,5787E-2,5C000490,-0724,1375,5949,024.3,045.2,0.000,750.5,01.17,0.508
2014-03-25 02:41:00,5853E-2,5C000490,-0724,1375,6011,024.3,045.2,0.000,750.5,01.17,0.508
2014-03-25 02:42:00,5806E-2,5C000490,-0724,1375,5997,024.3,045.2,0.000,750.4,01.17,0.508
2014-03-25 02:43:00,5857E-2,5C000490,-0724,1375,6075,024.3,045.2,0.000,750.4,01.17,0.508
2014-03-25 02:44:00,5792E-2,5C000490,-0724,1375,6008,024.3,045.2,0.000,750.4,01.17,0.508
2014-03-25 02:45:00,5815E-2,5C000490,-0724,1375,5985,024.3,045.2,0.000,750.4,01.17,0.508
2014-03-25 02:46:00,5838E-2,5C000490,-0724,1375,5959,024.3,045.2,0.000,750.4,01.17,0.508
2014-03-25 02:47:00,5906E-2,5C000490,-0724,1375,5944,024.3,045.2,0.000,750.4,01.17,0.508
2014-03-25 02:48:00,5859E-2,5C000490,-0724,1375,5982,024.3,045.2,0.000,750.4,01.17,0.508
2014-03-25 02:49:00,5775E-2,5C000490,-0724,1375,5956,024.3,045.2,0.000,750.4,01.17,0.508
2014-03-25 02:50:00,5799E-2,5C000490,-0724,1375,5866,024.3,045.2,0.000,750.4,01.17,0.508
2014-03-25 02:51:00,5811E-2,5C000490,-0724,1375,5912,024.3,045.2,0.000,750.4,01.17,0.508
2014-03-25 02:52:00,5797E-2,5C000490,-0724,1375,5985,024.4,045.2,0.000,750.3,01.17,0.508
2014-03-25 02:53:00,5858E-2,5C000490,-0724,1375,5918,024.4,045.2,0.000,750.3,01.17,0.508
2014-03-25 02:54:00,5822E-2,5C000490,-0724,1375,5914,024.4,045.2,0.000,750.3,01.17,0.508
2014-03-25 02:55:00,5791E-2,5C000490,-0724,1375,5945,024.4,045.2,0.000,750.4,01.17,0.508
2014-03-25 02:56:00,5775E-2,5C000490,-0724,1375,5943,024.4,045.2,0.000,750.4,01.17,0.508
2014-03-25 02:57:00,5831E-2,5C000490,-0724,1375,5860,024.4,045.2,0.000,750.3,01.17,0.508
2014-03-25 02:58:00,5810E-2,5C000490,-0724,1375,6014,024.4,045.2,0.000,750.3,01.17,0.508
2014-03-25 02:59:00,5825E-2,5C000490,-0724,1375,5974,024.5,045.2,0.000,750.3,01.17,0.508
2014-03-25 03:00:00,5813E-2,5C000490,-0724,1375,6028,024.5,045.2,0.000,750.4,01.17,0.508
2014-03-25 03:01:00,5875E-2,5C000490,-0724,1375,6083,024.5,045.2,0.000,750.4,01.17,0.508
2014-03-25 03:02:00,5907E-2,5C000490,-0724,1375,6061,024.5,045.2,0.000,750.4,01.17,0.508
2014-03-25 03:03:00,5788E-2,5C000490,-0724,1375,6073,024.5,045.2,0.000,750.3,01.17,0.508
2014-03-25 03:04:00,5825E-2,5C000490,-0724,1375,6093,024.5,045.2,0.000,750.2,01.17,0.508
2014-03-25 03:05:00,5872E-2,5C000490,-0724,1375,5959,024.5,045.2,0.000,750.2,01.17,0.508
2014-03-25 03:06:00,5866E-2,5C000490,-0724,1375,6043,024.5,045.2,0.000,750.3,01.17,0.508
2014-03-25 03:07:00,5851E-2,5C000490,-0724,1375,6039,024.5,045.2,0.000,750.3,01.17,0.508
2014-03-25 03:08:00,5853E-2,5C000490,-0724,1375,5948,024.6,045.2,0.000,750.3,01.17,0.508
2014-03-25 03:09:00,5829E-2,5C000490,-0724,1375,5969,024.6,045.2,0.000,750.2,01.17,0.508
2014-03-25 03:10:00,5857E-2,5C000490,-0724,1375,5970,024.6,045.2,0.000,750.2,01.17,0.508
2014-03-25 03:11:00,5876E-2,5C000490,-0724,1375,5885,024.6,045.2,0.000,750.2,01.17,0.508
2014-03-25 03:12:00,5836E-2,5C000490,-0724,1375,6007,024.5,045.2,0.000,750.2,01.17,0.508
2014-03-25 03:13:00,5876E-2,5C000490,-0724,1375,5966,024.5,045.2,0.000,750.2,01.17,0.508
2014-03-25 03:14:00,5856E-2,5C000490,-0724,1375,5877,024.5,045.2,0.140,750.3,01.17,0.508
2014-03-25 03:15:00,5871E-2,5C000490,-0724,1375,5956,024.5,045.2,0.163,750.3,01.17,0.508
2014-03-25 03:16:00,5892E-2,5C000490,-0724,1375,5847,024.5,045.2,0.181,750.3,01.17,0.508
2014-03-25 03:17:00,5889E-2,5C000490,-0724,1375,5915,024.5,045.2,0.165,750.2,01.17,0.508
2014-03-25 03:18:00,5918E-2,5C000490,-0724,1375,5905,024.5,045.2,0.174,750.3,01.17,0.508
2014-03-25 03:19:00,5940E-2,5C000490,-0724,1375,5879,024.5,045.2,0.131,750.2,01.17,0.508
2014-03-25 03:20:00,5939E-2,5C000490,-0724,1375,5975,024.5,045.2,0.101,750.1,01.17,0.508
2014-03-25 03:21:00,5886E-2,5C000490,-0724,1375,5919,024.6,045.2,0.125,750.2,01.17,0.508
2014-03-25 03:22:00,5933E-2,5C000490,-0724,1375,5740,024.5,045.2,0.141,750.2,01.17,0.508
2014-03-25 03:23:00,5861E-2,5C000490,-0724,1375,5695,024.6,045.2,0.131,750.2,01.17,0.508
2014-03-25 03:24:00,5905E-2,5C000490,-0724,1375,5836,024.6,045.2,0.126,750.2,01.17,0.508
2014-03-25 03:25:00,5873E-2,5C000490,-0724,1375,5807,024.6,045.2,0.000,750.2,01.17,0.508
2014-03-25 03:26:00,5924E-2,5C000490,-0724,1375,5854,024.6,045.2,0.000,750.1,01.17,0.508
2014-03-25 03:27:00,5915E-2,5C000490,-0724,1375,5834,024.6,045.2,0.000,750.1,01.17,0.508
2014-03-25 03:28:00,5903E-2,5C000490,-0724,1375,5782,024.6,045.2,0.000,750.2,01.17,0.508
2014-03-25 03:29:00,5949E-2,5C000490,-0724,1375,5876,024.6,045.2,0.000,750.2,01.17,0.508
2014-03-25 03:30:00,5968E-2,5C000490,-0724,1375,5719,024.7,045.2,0.000,750.2,01.17,0.508
2014-03-25 03:31:00,6101E-2,5C000490,-0724,1375,5760,024.7,045.2,0.000,750.2,01.17,0.508
2014-03-25 03:32:00,6045E-2,5C000490,-0724,1375,5726,024.7,045.2,0.000,750.1,01.17,0.508
2014-03-25 03:33:00,6018E-2,5C000490,-0724,1375,5758,024.7,045.2,0.000,750.1,01.17,0.508
2014-03-25 03:34:00,6043E-2,5C000490,-0724,1375,5709,024.7,045.2,0.000,750.1,01.17,0.508
2014-03-25 03:35:00,6065E-2,5C000490,-0724,1375,5684,024.7,045.2,0.000,750.1,01.17,0.508
2014-03-25 03:36:00,6091E-2,5C000490,-0724,1375,5659,024.6,045.2,0.000,750.1,01.17,0.508
2014-03-25 03:37:00,6077E-2,5C000490,-0724,1375,5717,024.6,045.2,0.000,750.1,01.17,0.508
2014-03-25 03:38:00,6103E-2,5C000490,-0724,1375,5652,024.6,045.2,0.000,750.1,01.17,0.508
2014-03-25 03:39:00,6037E-2,5C000490,-0724,1375,5606,024.6,045.2,0.000,750.0,01.17,0.508
2014-03-25 03:40:00,6045E-2,5C000490,-0724,1375,5689,024.6,045.2,0.000,750.1,01.17,0.508
2014-03-25 03:41:00,6082E-2,5C000490,-0724,1375,5612,024.6,045.2,0.000,750.1,01.17,0.508
2014-03-25 03:42:00,6038E-2,5C000490,-0724,1375,5655,024.6,045.2,0.000,750.0,01.17,0.508
2014-03-25 03:43:00,6137E-2,5C000490,-0724,1375,5603,024.6,045.2,0.000,750.0,01.17,0.508
2014-03-25 03:44:00,6111E-2,5C000490,-0724,1375,5618,024.6,045.2,0.000,750.0,01.17,0.508
2014-03-25 03:45:00,6005E-2,5C000490,-0724,1375,5589,024.6,045.2,0.000,749.9,01.17,0.508
2014-03-25 03:46:00,6170E-2,5C000490,-0724,1375,5506,024.6,045.2,0.000,750.0,01.17,0.508
2014-03-25 03:47:00,6218E-2,5C000490,-0724,1375,5434,024.6,045.2,0.000,750.1,01.17,0.508
2014-03-25 03:48:00,6187E-2,5C000490,-0724,1375,5514,024.6,045.2,0.000,750.0,01.17,0.508
2014-03-25 03:49:00,6173E-2,5C000490,-0724,1375,5533,024.7,045.2,0.000,750.0,01.17,0.508
2014-03-25 03:50:00,6209E-2,5C000490,-0724,1375,5543,024.7,045.2,0.000,749.9,01.17,0.508
2014-03-25 03:51:00,6162E-2,5C000490,-0724,1375,5484,024.7,045.2,0.000,749.9,01.17,0.508
2014-03-25 03:52:00,6117E-2,5C000490,-0724,1375,5443,024.7,045.2,0.000,750.0,01.17,0.508
2014-03-25 03:53:00,6167E-2,5C000490,-0724,1375,5511,024.7,045.2,0.000,750.1,01.17,0.508
2014-03-25 03:54:00,6171E-2,5C000490,-0724,1375,5496,024.7,045.2,0.000,749.9,01.17,0.508
2014-03-25 03:55:00,6209E-2,5C000490,-0724,1375,5442,024.7,045.2,0.000,749.8,01.17,0.508
2014-03-25 03:56:00,6145E-2,5C000490,-0724,1375,5448,024.7,045.2,0.000,749.9,01.17,0.508
2014-03-25 03:57:00,6282E-2,5C000490,-0724,1375,5423,024.7,045.2,0.000,750.0,01.17,0.508
2014-03-25 03:58:00,6214E-2,5C000490,-0724,1375,5497,024.7,045.2,0.000,750.0,01.17,0.508
2014-03-25 03:59:00,6108E-2,5C000490,-0724,1375,5274,024.7,045.2,0.000,750.0,01.17,0.508
2014-03-25 04:00:00,6093E-2,5C000490,-0724,1375,5407,024.7,045.3,0.000,750.0,01.17,0.508
2014-03-25 04:01:00,6047E-2,5C000490,-0724,1375,5360,024.7,045.3,0.000,749.9,01.17,0.508
2014-03-25 04:02:00,6063E-2,5C000490,-0724,1375,5423,024.7,045.2,0.000,749.9,01.17,0.508
2014-03-25 04:03:00,6048E-2,5C000490,-0724,1375,5422,024.7,045.2,0.000,749.9,01.17,0.508
2014-03-25 04:04:00,6071E-2,5C000490,-0724,1375,5292,024.7,045.2,0.000,750.0,01.17,0.508
2014-03-25 04:05:00,6064E-2,5C000490,-0724,1375,5431,024.7,045.2,0.000,749.9,01.17,0.508
2014-03-25 04:06:00,6121E-2,5C000490,-0724,1375,5417,024.7,045.2,0.000,749.8,01.17,0.508
2014-03-25 04:07:00,6134E-2,5C000490,-0724,1375,5444,024.7,045.2,0.000,749.9,01.17,0.508
2014-03-25 04:08:00,6124E-2,5C000490,-0724,1375,5579,024.7,045.2,0.000,749.9,01.17,0.508
2014-03-25 04:09:00,6056E-2,5C000490,-0724,1375,5552,024.7,045.2,0.000,749.9,01.17,0.508
2014-03-25 04:10:00,6026E-2,5C000490,-0724,1375,5572,024.7,045.2,0.000,749.8,01.17,0.508
2014-03-25 04:11:00,6058E-2,5C000490,-0724,1375,5634,024.7,045.2,0.000,749.8,01.17,0.508
2014-03-25 04:12:00,6127E-2,5C000490,-0724,1375,5544,024.7,045.2,0.000,749.8,01.17,0.508
2014-03-25 04:13:00,6025E-2,5C000490,-0724,1375,5579,024.8,045.2,0.000,749.8,01.17,0.508
2014-03-25 04:14:00,6071E-2,5C000490,-0724,1375,5567,024.8,045.3,0.000,749.8,01.17,0.508
2014-03-25 04:15:00,6190E-2,5C000490,-0724,1375,5535,024.8,045.2,0.000,749.8,01.17,0.508
2014-03-25 04:16:00,6067E-2,5C000490,-0724,1375,5576,024.8,045.2,0.000,749.8,01.17,0.508
2014-03-25 04:17:00,6041E-2,5C000490,-0724,1375,5472,024.8,045.2,0.000,749.8,01.17,0.508
2014-03-25 04:18:00,6065E-2,5C000490,-0724,1375,5525,024.8,045.2,0.000,749.8,01.17,0.508
2014-03-25 04:19:00,6095E-2,5C000490,-0724,1375,5516,024.8,045.2,0.000,749.8,01.17,0.508
2014-03-25 04:20:00,6112E-2,5C000490,-0724,1375,5548,024.8,045.2,0.000,749.8,01.17,0.508
2014-03-25 04:21:00,6153E-2,5C000490,-0724,1375,5477,024.8,045.2,0.000,749.8,01.17,0.508
2014-03-25 04:22:00,6215E-2,5C000490,-0724,1375,5491,024.8,045.2,0.000,749.8,01.17,0.508
2014-03-25 04:23:00,6125E-2,5C000490,-0724,1375,5498,024.8,045.2,0.000,749.8,01.17,0.508